DELTA 1 DEB, 720

Orbit data source: Space-Track

DELTA 1 DEB, 720 is space debris in LEO originally from a launch on Sat, 21 Dec 1963 UTC launched from the Air Force Western Test Range (AFWTR). Debris objects in space refer to the collection of defunct objects orbiting the Earth. Examples of debris include non-operational satellites, rocket bodies, and fragments generated from explosions, collisions, or faulty payload assembly.

Loading next visibility...
Identifier
720, 1963-054C
Orbit
LEO
Country
Flag of USUS
Related business
Manufacturer
Unknown
Mission
Spacecraft
Bus & Motor
Unknown
Mass
~1 kg wet, ~1 kg dry
Launch date (UTC)
1963-12-21 (62 years ago)
Launch vehicle
Unknown
Launch site
Air Force Western Test Range (AFWTR)
Object type
Payload
Rocket body
Debris
Shape & HBR
Unknown
Radar Cross Section
Small (<0.1 m²)

Expand to show TLE details & history
Last TLE update: 17 hours ago

TLE from 17 hours ago
0 DELTA 1 DEB
1 00720U 63054C   25306.19755174  .00000573  00000-0  17641-3 0  9999
2 00720  58.4708 221.4059 0111886 130.2042 230.8844 14.50284170248558
Epoch: 2025-11-02T04:44Z
TLE epoch observation values (Epoch: 2025-11-02T04:44:28.470Z)
Latitude
-0.00005°
Longitude
108.57051°
Altitude
776.791 km
Speed
7.44 km/s
True Right ascension
14h 45m 37s
True Declination
0° 00' 00"
Sunlit
Object was in daylight at epoch
Visualization orbit readout
Latitude
Unknown
Longitude
Unknown
Altitude
Unknown
Speed
Unknown
Apparent Right ascension
Unknown
Apparent Declination
Unknown
Sunlit
N/A
Visualization observer readout
Local Sidereal Time
17:46:12
Azimuth
Unknown
Elevation
Unknown
Doppler factor
Unknown
Orbital elements
Apogee altitude
803.633 km
Perigee altitude
644.703 km
Semi-major axis
7,102.305 km
Eccentricity
0.01119
Inclination
58.4708°
RAAN
221.4059°
Arg. of periapsis
130.2042°
True anomaly
229.89839°
Mean anomaly
230.8844°
Eccentric anomaly
230.39052°
Mean motion
3.62614 °/min
Orbital period
99.28 mins
BSTAR
0.00017641
Loading maneuver chart data...
Computing Atmospheric mass density...
Loading historical data...
Loading historical data...
Loading historical data...
Loading historical data...
Loading historical data...
Loading historical data...
Loading historical data...
Other satellites on launch #54 in the year 1963 (1963-12-21 UTC)

Documentation

Showing up to 5 results
|